[[{"header":{"parameterUnit":"m.s-1","parameterCategory":1,"la1":30.2991,"la2":30.254,"lo1":-89.0895,"lo2":-89.0444,"dy":0.0017,"dx":0.0017,"nx":28,"ny":28,"refTime":"2025-07-06T09:00:00:Z","depth":0,"parameterNumber":2,"parameterNumberName":"U-component_of_WINDS"},"data":[0,0,0,0,0,0,0,0,0,0,0,0,0,0,0,0,0,0,0,0,0,0,0,0,0,0,0,0,0,0,0,0,0,0,0,0,0,0,0,0,0,0,0,0,0,0,0,0,0,0,0,0,0,0,0,0,0,0,3.04,3.04,0,3.0426,3.0426,3.0427,3.033,3.0327,3.0324,3.0321,3.0351,3.0355,3.0358,0,0,0,0,0,0,0,0,0,0,0,0,0,3.0267,3.027,3.04,3.04,3.04,3.0426,3.0426,3.0427,3.033,3.0327,3.0323,3.032,3.035,3.0354,3.0359,0,0,0,0,0,0,0,0,0,0,0,0,0,3.0313,3.0271,3.04,3.0355,3.0351,3.0426,3.0426,3.0427,3.0331,3.0326,3.0322,3.0318,3.0349,3.0354,3.0359,3.0479,0,0,3.0375,3.0378,0,0,0,0,0,0,0,0,3.031,3.0317,3.0361,3.0358,3.0354,3.037,3.0391,3.0444,3.0332,3.0339,3.0321,3.0316,3.0361,3.0365,3.038,3.048,3.0482,3.0376,3.0379,3.0381,3.0383,0,0,0,0,0,0,0,3.0307,3.0316,3.041,3.0362,3.0358,3.0334,3.0336,3.04,3.0374,3.0338,3.0331,3.0335,3.0359,3.0375,3.038,3.0482,3.0376,3.038,3.0384,3.0386,3.0679,3.0684,0,0,0,0,0,0,3.0309,3.0314,3.0409,3.0411,3.0321,3.034,3.0342,3.0369,3.0373,3.037,3.0339,3.033,3.0368,3.0374,3.0381,3.0518,3.0381,3.0386,3.0389,3.0675,3.068,3.0685,0,0,0,0,0,0,3.0307,3.0319,3.0408,3.036,3.037,3.0347,3.0379,3.0372,3.0388,3.0374,3.0369,3.036,3.0365,3.0373,3.0454,3.0518,3.0389,3.0393,3.0669,3.0676,3.0683,3.0797,0,0,0,0,0,0,3.0304,3.0319,3.0364,3.0362,3.0373,3.0481,3.0383,3.0376,3.0397,3.0387,3.0393,3.039,3.0362,3.0447,3.046,3.0523,3.0398,3.0663,3.0672,3.0681,3.0788,3.0807,3.0824,0,0,0,0,0,3.0299,3.0396,3.0366,3.0378,3.0429,3.0485,3.0491,3.0457,3.0403,3.0448,3.0438,3.0389,3.051,3.0456,3.047,3.0536,3.0659,3.067,3.068,3.0779,3.0803,3.0823,0,0,0,0,0,0,3.0407,3.0395,3.0362,3.0461,3.0475,3.0469,3.0524,3.0484,3.0514,3.0503,3.046,3.0462,3.055,3.0551,3.0492,3.065,3.0575,3.0589,3.0646,3.0669,3.0687,3.0684,3.0402,0,0,0,0,0,3.0443,3.0489,3.0476,3.0565,3.0573,3.0548,3.0572,3.0543,3.0556,3.0562,3.0558,3.0573,3.0614,3.0642,3.0679,3.0788,3.0786,3.084,3.0858,3.0873,3.0885,3.094,3.0963,3.0719,3.0719,3.0719,0,0,3.0516,3.0515,3.0547,3.0587,3.0594,3.0642,3.0554,3.061,3.0645,3.0571,3.0646,3.0644,3.0658,3.0752,3.0794,3.0756,3.0952,3.0886,3.0898,3.0902,3.0953,3.0976,3.0996,3.0726,3.0725,3.0724,0,0,3.0675,3.068,3.0752,3.0761,3.0772,3.0754,3.0772,3.0772,3.0767,3.0841,3.0785,3.0828,3.09,3.0911,3.0926,3.1087,3.1042,3.11,3.1195,3.1249,3.1268,3.1285,3.134,3.136,3.1112,3.1113,3.1113,0,3.0765,3.0835,3.0796,3.0854,3.0872,3.0806,3.0879,3.0889,3.0913,3.0927,3.0884,3.0971,3.0976,3.1071,3.111,3.1125,3.1143,3.1099,3.1269,3.1285,3.13,3.1352,3.1373,3.112,3.1119,3.1118,3.1117,0,3.0944,3.0994,3.1052,3.1074,3.1099,3.1165,3.1135,3.1165,3.1135,3.1122,3.1198,3.1201,3.1236,3.1257,3.1229,3.1348,3.1324,3.1276,3.1199,3.1331,3.1378,3.1398,3.1129,3.1127,3.1125,3.1123,0,0,3.1172,3.1169,3.1191,3.1199,3.1206,3.1243,3.1306,3.1339,3.1365,3.1383,3.1434,3.1495,3.145,3.1467,3.144,3.1488,3.1612,3.1433,3.1433,3.1464,3.174,3.1774,3.1798,3.1583,3.1586,3.1589,3.1738,0,3.1325,3.143,3.1395,3.1502,3.1547,3.1483,3.1538,3.1548,3.1537,3.1573,3.1562,3.1605,3.1543,3.1553,3.1597,3.1587,3.1666,3.1576,3.1628,3.1631,3.1625,3.1824,3.1861,3.2001,3.1757,3.176,3.1762,0,3.1518,3.1541,3.1652,3.1649,3.1666,3.1716,3.1741,3.1777,3.1787,3.1776,3.1794,3.1756,3.1817,3.1741,3.1824,3.1763,3.1783,3.1781,3.1786,3.1788,3.1703,3.1829,3.2045,3.2065,3.1792,3.1789,3.1787,0,3.1669,3.1729,3.1802,3.1811,3.181,3.1846,3.1847,3.1853,3.1874,3.1897,3.191,3.1941,3.1958,3.1983,3.1954,3.1902,3.204,3.1962,3.2031,3.2032,3.2062,3.206,3.2282,3.2079,3.2078,3.2078,3.2078,0,3.1843,3.1912,3.1869,3.1914,3.199,3.195,3.2026,3.2021,3.2026,3.2068,3.2017,3.2058,3.2018,3.2056,3.2034,3.2104,3.2113,3.2105,3.2098,3.2109,3.2109,3.2119,3.2108,3.2083,3.2082,3.2081,3.208,0,3.2024,3.1998,3.2073,3.2065,3.2065,3.2121,3.2114,3.2155,3.214,3.2195,3.2205,3.2182,3.2224,3.2197,3.224,3.2225,3.2316,3.2297,3.2312,3.2306,3.2376,3.2369,3.261,3.2639,3.242,3.2422,3.2424,0,3.2135,3.2187,3.2184,3.2207,3.2212,3.2252,3.2272,3.2235,3.2258,3.2272,3.2311,3.2348,3.2375,3.2444,3.2431,3.2463,3.2443,3.2525,3.2447,3.2455,3.2441,3.2437,3.2441,3.254,3.2543,3.2545,3.2547,0,3.2335,3.2319,3.235,3.2376,3.2401,3.2421,3.2436,3.2459,3.2421,3.245,3.2491,3.2512,3.2554,3.259,3.2616,3.2618,3.2576,3.2572,3.2589,3.2599,3.2604,3.26,3.2353,3.2566,3.2564,3.2563,3.2562,3.2561,3.2482,3.2524,3.2528,3.2563,3.257,3.2585,3.2623,3.2611,3.2644,3.2674,3.2651,3.2699,3.2706,3.2736,3.2743,3.278,3.2746,3.2772,3.2778,3.2784,3.2793,3.26,3.2785,3.2784,3.2784,3.2783,3.2783,0,3.2677,3.2675,3.2709,3.273,3.2758,3.2715,3.2729,3.2756,3.2798,3.2808,3.2834,3.288,3.2915,3.2905,3.2935,3.2967,3.2948,3.2976,3.2972,3.2973,3.2822,3.2803,3.299,3.299,3.299,3.299,3.299,3.299,3.2781,3.2848,3.2833,3.2903,3.2902,3.2947,3.2958,3.2972,3.2978,3.3031,3.3059,3.3052,3.3053,3.3083,3.3113,3.3109,3.3121,3.3156,3.3145,3.3004,3.2984,3.2964,3.2946,3.316,3.316,3.3292,3.3293,3.3294]},{"header":{"parameterUnit":"m.s-1","parameterCategory":1,"la1":30.2991,"la2":30.254,"lo1":-89.0895,"lo2":-89.0444,"dy":0.0017,"dx":0.0017,"nx":28,"ny":28,"refTime":"2025-07-06T09:00:00:Z","depth":0,"parameterNumber":3,"parameterNumberName":"V-component_of_WINDS"},"data":[0,0,0,0,0,0,0,0,0,0,0,0,0,0,0,0,0,0,0,0,0,0,0,0,0,0,0,0,0,0,0,0,0,0,0,0,0,0,0,0,0,0,0,0,0,0,0,0,0,0,0,0,0,0,0,0,0,0,3.1538,3.154,0,3.1754,3.1756,3.1759,3.1787,3.1785,3.1782,3.1781,3.1998,3.2006,3.2014,0,0,0,0,0,0,0,0,0,0,0,0,0,3.1145,3.1152,3.1538,3.154,3.1543,3.1753,3.1756,3.1759,3.1787,3.1784,3.1782,3.178,3.1996,3.2005,3.2014,0,0,0,0,0,0,0,0,0,0,0,0,0,3.1334,3.1155,3.1537,3.1582,3.1589,3.1753,3.1757,3.176,3.1788,3.1784,3.1781,3.1778,3.1993,3.2004,3.2016,3.2149,0,0,3.2051,3.2056,0,0,0,0,0,0,0,0,3.1323,3.1348,3.1573,3.158,3.1587,3.174,3.1698,3.189,3.1788,3.1712,3.178,3.1777,3.1915,3.1933,3.198,3.2159,3.2169,3.2052,3.2059,3.2064,3.2067,0,0,0,0,0,0,0,3.131,3.1339,3.1623,3.1576,3.1585,3.1591,3.1614,3.1735,3.1828,3.1718,3.1721,3.1746,3.1918,3.1969,3.1985,3.2172,3.2052,3.2062,3.2069,3.2074,3.247,3.2474,0,0,0,0,0,0,3.1289,3.1328,3.1616,3.163,3.1445,3.16,3.1626,3.1694,3.1827,3.1844,3.1749,3.1747,3.195,3.1972,3.1993,3.2157,3.2064,3.2075,3.2081,3.2467,3.2471,3.2475,0,0,0,0,0,0,3.1281,3.1315,3.1608,3.148,3.1517,3.161,3.1686,3.17,3.1751,3.185,3.1866,3.1784,3.1949,3.1977,3.211,3.2165,3.208,3.2091,3.2462,3.2468,3.2473,3.2488,0,0,0,0,0,0,3.1269,3.1311,3.1364,3.1481,3.1524,3.1722,3.169,3.1706,3.1771,3.177,3.1887,3.1903,3.1948,3.2093,3.2121,3.218,3.21,3.2458,3.2465,3.2471,3.2482,3.2493,3.2501,0,0,0,0,0,3.1255,3.1359,3.1367,3.1401,3.1592,3.1725,3.175,3.1801,3.1775,3.1828,3.1892,3.1899,3.2154,3.2106,3.2139,3.2201,3.2455,3.2463,3.2471,3.2478,3.2491,3.2501,0,0,0,0,0,0,3.1246,3.1375,3.1385,3.153,3.1617,3.173,3.1798,3.1813,3.1908,3.1903,3.1962,3.1988,3.2118,3.2173,3.2117,3.2337,3.2302,3.2317,3.2296,3.2309,3.2318,3.2302,3.2109,0,0,0,0,0,3.126,3.1359,3.1467,3.1584,3.1627,3.1705,3.1765,3.1797,3.1889,3.1925,3.1998,3.2086,3.2186,3.225,3.2348,3.249,3.2515,3.2549,3.2559,3.2566,3.2578,3.2657,3.2673,3.2501,3.2501,3.2501,0,0,3.1292,3.1375,3.1434,3.1584,3.1655,3.1755,3.1736,3.1842,3.1916,3.1941,3.2072,3.2128,3.223,3.2368,3.2433,3.2418,3.2631,3.2576,3.2581,3.259,3.2667,3.2683,3.2697,3.2507,3.2506,3.2505,0,0,3.14,3.1473,3.1579,3.1651,3.1758,3.181,3.1835,3.1946,3.1985,3.2117,3.2138,3.2226,3.2397,3.2468,3.2527,3.2661,3.2671,3.2691,3.2741,3.2816,3.283,3.2842,3.289,3.2906,3.2703,3.2703,3.2703,0,3.1426,3.1578,3.1631,3.1737,3.1802,3.183,3.1937,3.2003,3.2136,3.218,3.2162,3.2377,3.2447,3.2602,3.2635,3.2681,3.2711,3.2678,3.2824,3.2837,3.2849,3.2895,3.2912,3.2705,3.2704,3.2704,3.2704,0,3.1603,3.1708,3.1781,3.191,3.1983,3.2089,3.2157,3.2224,3.2249,3.2302,3.2435,3.252,3.2635,3.2674,3.27,3.2833,3.282,3.2812,3.2778,3.2866,3.291,3.2928,3.2707,3.2706,3.2706,3.2706,0,0,3.1712,3.187,3.1895,3.1954,3.2074,3.2156,3.2262,3.2376,3.2432,3.2523,3.2612,3.2756,3.2749,3.2816,3.2849,3.2916,3.3016,3.29,3.2903,3.2918,3.3167,3.3172,3.3191,3.3023,3.3027,3.3029,3.3158,0,3.1834,3.2026,3.2077,3.2239,3.2336,3.2363,3.2455,3.2538,3.259,3.2679,3.2735,3.2836,3.282,3.286,3.2927,3.2989,3.3066,3.2981,3.3106,3.311,3.308,3.3215,3.3221,3.3338,3.3175,3.3178,3.3181,0,3.2003,3.2098,3.227,3.2377,3.242,3.2502,3.261,3.2695,3.2789,3.2822,3.2896,3.2923,3.3033,3.2993,3.3145,3.3085,3.3139,3.3177,3.3183,3.3197,3.315,3.3231,3.3377,3.3394,3.3208,3.3206,3.3204,0,3.2064,3.2235,3.236,3.241,3.2538,3.2595,3.2651,3.2743,3.2807,3.2901,3.2943,3.3047,3.3104,3.3184,3.3238,3.3204,3.3385,3.335,3.3414,3.3413,3.3451,3.3448,3.3607,3.3486,3.3486,3.3485,3.3485,0,3.2195,3.2299,3.239,3.2467,3.2583,3.264,3.2754,3.281,3.2891,3.2978,3.3008,3.3088,3.3155,3.3244,3.3287,3.3406,3.3431,3.346,3.347,3.3458,3.3454,3.3494,3.3487,3.349,3.3489,3.3488,3.3487,0,3.2284,3.2349,3.2487,3.2597,3.2627,3.2709,3.2803,3.2878,3.293,3.304,3.3069,3.315,3.3257,3.3319,3.3453,3.3482,3.3613,3.362,3.3582,3.3587,3.3648,3.3641,3.3838,3.3866,3.3726,3.3727,3.3728,0,3.2363,3.2444,3.2563,3.2625,3.2682,3.278,3.2846,3.2904,3.2971,3.3084,3.3145,3.3254,3.3344,3.3513,3.3584,3.3686,3.3695,3.3757,3.3711,3.3695,3.3696,3.369,3.3698,3.3765,3.3766,3.3767,3.3768,0,3.2497,3.2525,3.262,3.2726,3.2805,3.2891,3.2976,3.3024,3.3096,3.317,3.3281,3.3351,3.3488,3.3595,3.3704,3.376,3.3776,3.3782,3.3802,3.379,3.3765,3.3779,3.3603,3.3777,3.3776,3.3776,3.3775,3.3775,3.2583,3.2656,3.2752,3.2856,3.2927,3.3006,3.3082,3.3143,3.3237,3.3354,3.3382,3.3498,3.3589,3.3736,3.3795,3.3885,3.3874,3.3904,3.3911,3.3917,3.3919,3.3751,3.3905,3.3905,3.3904,3.3904,3.3904,0,3.2718,3.2781,3.2876,3.2996,3.3078,3.3087,3.3181,3.3249,3.3351,3.3435,3.3523,3.3649,3.3753,3.3832,3.3938,3.3995,3.4004,3.402,3.4017,3.4029,3.3923,3.3895,3.4011,3.4011,3.4011,3.4011,3.4011,3.4011,3.2798,3.2922,3.2961,3.3119,3.3181,3.3295,3.3349,3.3421,3.3489,3.3628,3.3715,3.3766,3.3848,3.396,3.4055,3.4076,3.4113,3.4128,3.4149,3.4048,3.4037,3.4026,3.4,3.4135,3.4136,3.4248,3.4249,3.4249]}]]